This is the latest recevied weather packets stored in our database for station/object W4NRG-1. If no packets are shown the sender has not sent any weather packets the latest 1 day(s).
| Time | Temp. | Humidity | Pressure | Rain* | Wind** | Luminosity | Snow |
|---|---|---|---|---|---|---|---|
| 1778019323 | 27.78° C | 34% | 1011.8 hPa | 0 mm | 1.79 m/s, 67° | - | - |
| 1778019019 | 27.78° C | 34% | 1011.6 hPa | 0 mm | 2.24 m/s, 83° | - | - |
| 1778018716 | 27.78° C | 34% | 1011.5 hPa | 0 mm | 0.89 m/s, 56° | - | - |
| 1778018414 | 27.78° C | 34% | 1011.5 hPa | 0 mm | 0.89 m/s, 273° | - | - |
| 1778018112 | 27.78° C | 34% | 1011.6 hPa | 0 mm | 2.24 m/s, 313° | - | - |
| 1778017810 | 27.78° C | 34% | 1011.7 hPa | 0 mm | 1.34 m/s, 318° | - | - |
| 1778017508 | 27.78° C | 34% | 1011.7 hPa | 0 mm | 1.34 m/s, 169° | - | - |
| 1778017204 | 28.33° C | 34% | 1011.5 hPa | 0 mm | 1.34 m/s, 28° | - | - |
| 1778016902 | 28.33° C | 33% | 1011.5 hPa | 0 mm | 1.34 m/s, 305° | - | - |
| 1778016598 | 28.33° C | 34% | 1011.6 hPa | 0 mm | 0.89 m/s, 284° | - | - |
| 1778016295 | 28.89° C | 32% | 1011.5 hPa | 0 mm | 2.24 m/s, 75° | - | - |
| 1778015991 | 28.89° C | 34% | 1011.7 hPa | 0 mm | 1.79 m/s, 47° | - | - |
| 1778015689 | 28.33° C | 32% | 1011.5 hPa | 0 mm | 4.02 m/s, 293° | - | - |
| 1778015385 | 28.89° C | 32% | 1011.3 hPa | 0 mm | 0.89 m/s, 309° | - | - |
| 1778015082 | 28.89° C | 32% | 1011.4 hPa | 0 mm | 1.34 m/s, 323° | - | - |
| 1778014779 | 28.89° C | 31% | 1011.6 hPa | 0 mm | 2.24 m/s, 3° | - | - |
| 1778014478 | 28.33° C | 31% | 1011.4 hPa | 0 mm | 0.45 m/s, 104° | - | - |
| 1778014174 | 28.89° C | 30% | 1011.5 hPa | 0 mm | 3.13 m/s, 346° | - | - |
| 1778013872 | 28.89° C | 31% | 1011.5 hPa | 0 mm | 1.79 m/s, 328° | - | - |
| 1778013569 | 29.44° C | 32% | 1011.6 hPa | 0 mm | 1.79 m/s, 286° | - | - |
| 1778013265 | 29.44° C | 31% | 1011.4 hPa | 0 mm | 1.34 m/s, 296° | - | - |
| 1778012961 | 29.44° C | 32% | 1011.7 hPa | 0 mm | 0.89 m/s, 268° | - | - |
| 1778012658 | 29.44° C | 32% | 1011.7 hPa | 0 mm | 2.24 m/s, 137° | - | - |
| 1778012354 | 29.44° C | 33% | 1011.5 hPa | 0 mm | 3.58 m/s, 22° | - | - |
| 1778012052 | 29.44° C | 33% | 1011.9 hPa | 0 mm | 2.24 m/s, 356° | - | - |
* Rain latest hour (hover to see other rain measurements)
** Current wind speed in m/s (hover to see current wind gust speed)